Zurück zum Katalog

FREGAT DEB

LostUNKNOWN
NORAD 47094·DEBRIS·🇷🇺 Russia

Gestartet Jul 18, 2011 von Baikonur Cosmodrome

Loading…

Nächste Überflüge (nächste 24 Stunden)

TLE

VeraltetSource: Space-Track

Epoche: Dec 8, 2020, 17:25 UTC

1 47094U 11037NF  20343.72569793  .00221080  00000-0  14051+0 0  9999
2 47094  51.3806 240.3399 1334008 268.2795  76.5250 12.04771577  6762

Verfolge FREGAT DEB in Echtzeit mit AllMySat

Download on the App Store